5XCMG HKNW-HTMW

Flight info

Callsign 5XCMG
Flight time 0h 54m
Altitude 24000
Route LABAG DCT PARIN UM306 UVDIX DCT OKRAG
Aircraft DH8D/M-SDE2E3FGRY/H

Departure

Time 2026-05-05 11:52
Airport Nairobi Wilson Airport (HKNW)

Arrival

Time 2026-05-05 12:47
Airport Mwanza International Airport (HTMW)
Time Latitude Longitude Altitude Speed Heading
2026-05-05 11:39 -1.31879 36.81471 5499 ft 0 kts 298°
2026-05-05 11:46 -1.31878 36.81468 5499 ft 1 kts 298°
2026-05-05 11:46 -1.31874 36.81447 5500 ft 6 kts 257°
2026-05-05 11:46 -1.31910 36.81397 5500 ft 11 kts 227°
2026-05-05 11:46 -1.31935 36.81358 5500 ft 6 kts 247°
2026-05-05 11:47 -1.31948 36.81323 5501 ft 5 kts 257°
2026-05-05 11:47 -1.31943 36.81286 5502 ft 6 kts 295°
2026-05-05 11:47 -1.31920 36.81245 5505 ft 7 kts 298°
2026-05-05 11:47 -1.31916 36.81211 5506 ft 2 kts 218°
2026-05-05 11:48 -1.31921 36.81217 5506 ft 0 kts 44°
2026-05-05 11:48 -1.31918 36.81228 5506 ft 5 kts 106°
2026-05-05 11:49 -1.31970 36.81249 5503 ft 4 kts 157°
2026-05-05 11:49 -1.31991 36.81269 5502 ft 0 kts 128°
2026-05-05 11:50 -1.31992 36.81270 5502 ft 0 kts 128°
2026-05-05 11:51 -1.31993 36.81272 5502 ft 0 kts 129°
2026-05-05 11:51 -1.31994 36.81272 5502 ft 0 kts 129°
2026-05-05 11:51 -1.32010 36.81290 5500 ft 23 kts 136°
2026-05-05 11:51 -1.32329 36.81615 5476 ft 105 kts 135°
2026-05-05 11:52 -1.32983 36.82274 5506 ft 153 kts 134°
2026-05-05 11:52 -1.33788 36.82998 5949 ft 160 kts 150°
2026-05-05 11:52 -1.34866 36.83124 6409 ft 167 kts 203°
2026-05-05 11:52 -1.35626 36.82255 6718 ft 181 kts 258°
2026-05-05 11:53 -1.35323 36.81079 7139 ft 182 kts 316°
2026-05-05 11:53 -1.34168 36.80584 7504 ft 187 kts 344°
2026-05-05 11:53 -1.32960 36.80160 8074 ft 186 kts 342°
2026-05-05 11:53 -1.31768 36.79639 8497 ft 193 kts 327°
2026-05-05 11:54 -1.30922 36.78663 9123 ft 188 kts 297°
2026-05-05 11:54 -1.30454 36.77406 9506 ft 197 kts 290°
2026-05-05 11:54 -1.29992 36.76116 9992 ft 200 kts 291°
2026-05-05 11:54 -1.29506 36.74748 10344 ft 217 kts 290°
2026-05-05 11:55 -1.29055 36.73223 10586 ft 242 kts 279°
2026-05-05 11:55 -1.29096 36.71517 11144 ft 248 kts 260°
2026-05-05 11:55 -1.29449 36.69822 11751 ft 252 kts 258°
2026-05-05 11:55 -1.29816 36.68148 12607 ft 244 kts 258°
2026-05-05 11:56 -1.30307 36.66568 13342 ft 242 kts 250°
2026-05-05 11:56 -1.30933 36.65014 13954 ft 243 kts 247°
2026-05-05 11:56 -1.31609 36.63497 14710 ft 236 kts 246°
2026-05-05 11:56 -1.32280 36.62020 15276 ft 237 kts 248°
2026-05-05 11:57 -1.32939 36.60509 15754 ft 240 kts 248°
2026-05-05 11:57 -1.33563 36.58967 16212 ft 243 kts 252°
2026-05-05 11:57 -1.34145 36.57357 16548 ft 251 kts 251°
2026-05-05 11:57 -1.34728 36.55720 17053 ft 250 kts 253°
2026-05-05 11:58 -1.35305 36.54089 17453 ft 255 kts 253°
2026-05-05 11:58 -1.35915 36.52358 17594 ft 269 kts 252°
2026-05-05 11:58 -1.36547 36.50593 17966 ft 272 kts 252°
2026-05-05 11:58 -1.37179 36.48806 18324 ft 275 kts 253°
2026-05-05 11:59 -1.37816 36.47006 18714 ft 277 kts 253°
2026-05-05 11:59 -1.38460 36.45194 19107 ft 278 kts 253°
2026-05-05 11:59 -1.39105 36.43377 19485 ft 279 kts 253°
2026-05-05 11:59 -1.39753 36.41552 19851 ft 280 kts 253°
2026-05-05 12:00 -1.40407 36.39708 20207 ft 281 kts 253°
2026-05-05 12:00 -1.41061 36.37867 20562 ft 283 kts 253°
2026-05-05 12:00 -1.41715 36.36022 20951 ft 283 kts 253°
2026-05-05 12:00 -1.42363 36.34199 21329 ft 284 kts 253°
2026-05-05 12:01 -1.43030 36.32321 21700 ft 284 kts 254°
2026-05-05 12:01 -1.43689 36.30466 22051 ft 285 kts 254°
2026-05-05 12:01 -1.44351 36.28601 22389 ft 286 kts 254°
2026-05-05 12:01 -1.45020 36.26715 22722 ft 287 kts 254°
2026-05-05 12:02 -1.45685 36.24841 23043 ft 288 kts 254°
2026-05-05 12:02 -1.46352 36.22962 23353 ft 288 kts 254°
2026-05-05 12:02 -1.47021 36.21077 23656 ft 289 kts 254°
2026-05-05 12:02 -1.47691 36.19187 23936 ft 290 kts 254°
2026-05-05 12:03 -1.48374 36.17260 23997 ft 299 kts 254°
2026-05-05 12:03 -1.49077 36.15274 24011 ft 309 kts 254°
2026-05-05 12:03 -1.49809 36.13210 24012 ft 318 kts 254°
2026-05-05 12:03 -1.50556 36.11105 24011 ft 326 kts 254°
2026-05-05 12:04 -1.51321 36.08949 24009 ft 333 kts 253°
2026-05-05 12:04 -1.52101 36.06752 24008 ft 339 kts 253°
2026-05-05 12:04 -1.52893 36.04518 24006 ft 344 kts 253°
2026-05-05 12:04 -1.53699 36.02249 24005 ft 349 kts 253°
2026-05-05 12:05 -1.54514 35.99950 23868 ft 357 kts 253°
2026-05-05 12:05 -1.55358 35.97569 23777 ft 362 kts 253°
2026-05-05 12:05 -1.56200 35.95198 23762 ft 364 kts 253°
2026-05-05 12:05 -1.57044 35.92818 23756 ft 364 kts 253°
2026-05-05 12:06 -1.57884 35.90451 23756 ft 363 kts 253°
2026-05-05 12:06 -1.58727 35.88077 23755 ft 363 kts 253°
2026-05-05 12:06 -1.59566 35.85713 23756 ft 363 kts 253°
2026-05-05 12:06 -1.60413 35.83322 23756 ft 363 kts 253°
2026-05-05 12:07 -1.61255 35.80948 23756 ft 362 kts 253°
2026-05-05 12:07 -1.62095 35.78580 23755 ft 362 kts 253°
2026-05-05 12:07 -1.62933 35.76216 23755 ft 361 kts 253°
2026-05-05 12:07 -1.63772 35.73851 23756 ft 361 kts 253°
2026-05-05 12:08 -1.64610 35.71486 23756 ft 361 kts 253°
2026-05-05 12:08 -1.65449 35.69121 23756 ft 361 kts 253°
2026-05-05 12:08 -1.66291 35.66748 23859 ft 357 kts 253°
2026-05-05 12:08 -1.67114 35.64429 23957 ft 355 kts 253°
2026-05-05 12:09 -1.67936 35.62109 23970 ft 355 kts 253°
2026-05-05 12:09 -1.68758 35.59788 23973 ft 356 kts 253°
2026-05-05 12:09 -1.69585 35.57454 23974 ft 356 kts 253°
2026-05-05 12:09 -1.70412 35.55121 23974 ft 357 kts 253°
2026-05-05 12:10 -1.71241 35.52782 23974 ft 358 kts 253°
2026-05-05 12:10 -1.72078 35.50422 23974 ft 359 kts 253°
2026-05-05 12:10 -1.72911 35.48072 23974 ft 359 kts 253°
2026-05-05 12:10 -1.73745 35.45717 23973 ft 360 kts 253°
2026-05-05 12:11 -1.74580 35.43362 23973 ft 360 kts 253°
2026-05-05 12:11 -1.75417 35.41000 23973 ft 360 kts 253°
2026-05-05 12:11 -1.76255 35.38636 23973 ft 361 kts 253°
2026-05-05 12:11 -1.77054 35.36269 23969 ft 360 kts 257°
2026-05-05 12:12 -1.77725 35.33856 23975 ft 360 kts 257°
2026-05-05 12:12 -1.78395 35.31450 23975 ft 360 kts 257°
2026-05-05 12:12 -1.79065 35.29038 23975 ft 360 kts 257°
2026-05-05 12:12 -1.79734 35.26629 23975 ft 361 kts 257°
2026-05-05 12:13 -1.80404 35.24214 23975 ft 361 kts 257°
2026-05-05 12:13 -1.81075 35.21798 23974 ft 361 kts 257°
2026-05-05 12:13 -1.81746 35.19382 23974 ft 360 kts 257°
2026-05-05 12:13 -1.82423 35.16945 23974 ft 360 kts 257°
2026-05-05 12:14 -1.83093 35.14528 23974 ft 360 kts 257°
2026-05-05 12:14 -1.83762 35.12119 23974 ft 360 kts 257°
2026-05-05 12:14 -1.84431 35.09710 23974 ft 360 kts 257°
2026-05-05 12:14 -1.85098 35.07307 23974 ft 360 kts 257°
2026-05-05 12:15 -1.85769 35.04889 23974 ft 360 kts 257°
2026-05-05 12:15 -1.86436 35.02484 23974 ft 360 kts 257°
2026-05-05 12:15 -1.87108 35.00061 23974 ft 360 kts 257°
2026-05-05 12:15 -1.87775 34.97659 23974 ft 360 kts 257°
2026-05-05 12:16 -1.88442 34.95252 23974 ft 360 kts 257°
2026-05-05 12:16 -1.89110 34.92845 23974 ft 360 kts 257°
2026-05-05 12:16 -1.89779 34.90436 23973 ft 360 kts 257°
2026-05-05 12:16 -1.90446 34.88028 23975 ft 360 kts 257°
2026-05-05 12:17 -1.91118 34.85609 23975 ft 360 kts 257°
2026-05-05 12:17 -1.91786 34.83200 23973 ft 360 kts 257°
2026-05-05 12:17 -1.92456 34.80782 23975 ft 360 kts 257°
2026-05-05 12:17 -1.93126 34.78370 23974 ft 361 kts 257°
2026-05-05 12:18 -1.93796 34.75953 23974 ft 361 kts 257°
2026-05-05 12:18 -1.94464 34.73544 23974 ft 361 kts 257°
2026-05-05 12:18 -1.95133 34.71132 23974 ft 361 kts 257°
2026-05-05 12:18 -1.95808 34.68700 23974 ft 361 kts 257°
2026-05-05 12:19 -1.96476 34.66290 23975 ft 361 kts 257°
2026-05-05 12:19 -1.97143 34.63883 23974 ft 361 kts 257°
2026-05-05 12:19 -1.97812 34.61470 23973 ft 361 kts 257°
2026-05-05 12:19 -1.98481 34.59059 23974 ft 361 kts 257°
2026-05-05 12:20 -1.99150 34.56644 23974 ft 361 kts 257°
2026-05-05 12:20 -1.99817 34.54237 23999 ft 360 kts 257°
2026-05-05 12:20 -2.00487 34.51820 24049 ft 359 kts 257°
2026-05-05 12:20 -2.01151 34.49423 24054 ft 359 kts 257°
2026-05-05 12:21 -2.01817 34.47020 24055 ft 360 kts 257°
2026-05-05 12:21 -2.02483 34.44619 24056 ft 360 kts 257°
2026-05-05 12:21 -2.03149 34.42214 24055 ft 360 kts 257°
2026-05-05 12:21 -2.03815 34.39810 24056 ft 360 kts 257°
2026-05-05 12:22 -2.04484 34.37397 24055 ft 360 kts 257°
2026-05-05 12:22 -2.05149 34.34996 24055 ft 360 kts 257°
2026-05-05 12:22 -2.05821 34.32572 24057 ft 361 kts 257°
2026-05-05 12:22 -2.06488 34.30162 24057 ft 361 kts 257°
2026-05-05 12:23 -2.07157 34.27749 24057 ft 361 kts 257°
2026-05-05 12:23 -2.07868 34.25347 24045 ft 363 kts 250°
2026-05-05 12:23 -2.08916 34.23063 24067 ft 362 kts 249°
2026-05-05 12:23 -2.09954 34.20767 24059 ft 363 kts 248°
2026-05-05 12:24 -2.11024 34.18451 23801 ft 367 kts 248°
2026-05-05 12:24 -2.12100 34.16143 23322 ft 367 kts 247°
2026-05-05 12:24 -2.13173 34.13848 22847 ft 364 kts 247°
2026-05-05 12:24 -2.14238 34.11573 22371 ft 361 kts 247°
2026-05-05 12:25 -2.15294 34.09319 21894 ft 358 kts 247°
2026-05-05 12:25 -2.16342 34.07080 21419 ft 356 kts 247°
2026-05-05 12:25 -2.17388 34.04843 20942 ft 353 kts 247°
2026-05-05 12:25 -2.18420 34.02638 20468 ft 351 kts 246°
2026-05-05 12:26 -2.19450 34.00438 19994 ft 349 kts 246°
2026-05-05 12:26 -2.20473 33.98250 19522 ft 348 kts 246°
2026-05-05 12:26 -2.21491 33.96076 19051 ft 346 kts 246°
2026-05-05 12:26 -2.22505 33.93908 18580 ft 345 kts 246°
2026-05-05 12:27 -2.23517 33.91746 18109 ft 343 kts 246°
2026-05-05 12:27 -2.24531 33.89578 17636 ft 342 kts 246°
2026-05-05 12:27 -2.25529 33.87445 17169 ft 341 kts 246°
2026-05-05 12:27 -2.26527 33.85311 16701 ft 340 kts 245°
2026-05-05 12:28 -2.27522 33.83185 16231 ft 338 kts 245°
2026-05-05 12:28 -2.28511 33.81070 15761 ft 336 kts 245°
2026-05-05 12:28 -2.29495 33.78968 15292 ft 334 kts 245°
2026-05-05 12:28 -2.30472 33.76879 14823 ft 332 kts 245°
2026-05-05 12:29 -2.31450 33.74789 14351 ft 330 kts 245°
2026-05-05 12:29 -2.32418 33.72718 13883 ft 329 kts 245°
2026-05-05 12:29 -2.33381 33.70661 13415 ft 327 kts 245°
2026-05-05 12:29 -2.34338 33.68614 12946 ft 326 kts 245°
2026-05-05 12:30 -2.35239 33.66687 12504 ft 324 kts 244°
2026-05-05 12:30 -2.36191 33.64652 12035 ft 323 kts 244°
2026-05-05 12:30 -2.37138 33.62626 11567 ft 322 kts 244°
2026-05-05 12:30 -2.38089 33.60593 11095 ft 320 kts 244°
2026-05-05 12:31 -2.39026 33.58587 10628 ft 319 kts 244°
2026-05-05 12:31 -2.39960 33.56590 10160 ft 318 kts 244°
2026-05-05 12:31 -2.40891 33.54599 9711 ft 316 kts 244°
2026-05-05 12:31 -2.41808 33.52641 9558 ft 312 kts 244°
2026-05-05 12:32 -2.42732 33.50665 9473 ft 314 kts 244°
2026-05-05 12:32 -2.43644 33.48694 9488 ft 313 kts 244°
2026-05-05 12:32 -2.44549 33.46702 9489 ft 312 kts 244°
2026-05-05 12:32 -2.45444 33.44732 9490 ft 311 kts 244°
2026-05-05 12:33 -2.46337 33.42764 9490 ft 311 kts 244°
2026-05-05 12:33 -2.47229 33.40799 9490 ft 310 kts 244°
2026-05-05 12:33 -2.48120 33.38837 9490 ft 310 kts 244°
2026-05-05 12:33 -2.49010 33.36875 9491 ft 310 kts 244°
2026-05-05 12:34 -2.49620 33.34958 9468 ft 310 kts 266°
2026-05-05 12:34 -2.49504 33.32794 9502 ft 309 kts 274°
2026-05-05 12:34 -2.49330 33.30659 9491 ft 309 kts 274°
2026-05-05 12:34 -2.49159 33.28514 9490 ft 309 kts 274°
2026-05-05 12:35 -2.48989 33.26371 9489 ft 309 kts 274°
2026-05-05 12:35 -2.48820 33.24232 9489 ft 309 kts 274°
2026-05-05 12:35 -2.48652 33.22096 9493 ft 309 kts 275°
2026-05-05 12:35 -2.48483 33.19946 9514 ft 308 kts 276°
2026-05-05 12:36 -2.48312 33.17818 9515 ft 308 kts 275°
2026-05-05 12:36 -2.48143 33.15693 9516 ft 307 kts 275°
2026-05-05 12:36 -2.47974 33.13569 9516 ft 307 kts 275°
2026-05-05 12:36 -2.47806 33.11444 9515 ft 307 kts 275°
2026-05-05 12:37 -2.47638 33.09324 9515 ft 307 kts 275°
2026-05-05 12:37 -2.47469 33.07204 9516 ft 307 kts 275°
2026-05-05 12:37 -2.47299 33.05065 9516 ft 307 kts 275°
2026-05-05 12:37 -2.47130 33.02935 9517 ft 307 kts 275°
2026-05-05 12:38 -2.46961 33.00803 9473 ft 310 kts 275°
2026-05-05 12:38 -2.46788 32.98644 9088 ft 312 kts 275°
2026-05-05 12:38 -2.46621 32.96521 8884 ft 302 kts 275°
2026-05-05 12:38 -2.46457 32.94444 8486 ft 298 kts 275°
2026-05-05 12:39 -2.46295 32.92400 8108 ft 294 kts 276°
2026-05-05 12:39 -2.46118 32.90380 7748 ft 287 kts 272°
2026-05-05 12:39 -2.45975 32.88417 7382 ft 281 kts 274°
2026-05-05 12:39 -2.45826 32.86501 7061 ft 274 kts 274°
2026-05-05 12:40 -2.45677 32.84627 6731 ft 268 kts 274°
2026-05-05 12:40 -2.45532 32.82796 6402 ft 263 kts 274°
2026-05-05 12:40 -2.45389 32.81002 6143 ft 254 kts 274°
2026-05-05 12:40 -2.45253 32.79296 6109 ft 240 kts 274°
2026-05-05 12:41 -2.45121 32.77629 6118 ft 240 kts 274°
2026-05-05 12:41 -2.44987 32.75956 6121 ft 243 kts 274°
2026-05-05 12:41 -2.44852 32.74264 6122 ft 246 kts 274°
2026-05-05 12:41 -2.44408 32.72629 6108 ft 249 kts 304°
2026-05-05 12:42 -2.43059 32.71587 6131 ft 252 kts 340°
2026-05-05 12:42 -2.41319 32.71531 6134 ft 258 kts 15°
2026-05-05 12:42 -2.39837 32.72506 6134 ft 262 kts 50°
2026-05-05 12:42 -2.38628 32.73877 6117 ft 262 kts 30°
2026-05-05 12:43 -2.37214 32.74990 6114 ft 265 kts 56°
2026-05-05 12:43 -2.36705 32.76730 6155 ft 263 kts 91°
2026-05-05 12:43 -2.37145 32.78473 6183 ft 259 kts 114°
2026-05-05 12:43 -2.37899 32.80098 6187 ft 257 kts 117°
2026-05-05 12:44 -2.38674 32.81670 6100 ft 250 kts 117°
2026-05-05 12:44 -2.39433 32.83196 5781 ft 243 kts 117°
2026-05-05 12:44 -2.40159 32.84652 5446 ft 222 kts 117°
2026-05-05 12:44 -2.40803 32.85946 5113 ft 197 kts 116°
2026-05-05 12:45 -2.41378 32.87103 4735 ft 181 kts 116°
2026-05-05 12:45 -2.41927 32.88204 4464 ft 176 kts 116°
2026-05-05 12:45 -2.42428 32.89210 4412 ft 154 kts 116°
2026-05-05 12:45 -2.42906 32.90151 4151 ft 149 kts 117°
2026-05-05 12:46 -2.43353 32.91054 3942 ft 141 kts 115°
2026-05-05 12:46 -2.43777 32.91918 3781 ft 132 kts 116°
2026-05-05 12:46 -2.44165 32.92694 3768 ft 118 kts 115°
2026-05-05 12:46 -2.44450 32.93271 3780 ft 59 kts 116°
2026-05-05 12:47 -2.44554 32.93456 3782 ft 13 kts 127°
2026-05-05 12:47 -2.44561 32.93486 3782 ft 4 kts 39°
2026-05-05 12:47 -2.44537 32.93474 3782 ft 5 kts 294°
2026-05-05 12:47 -2.44522 32.93440 3782 ft 6 kts 294°
2026-05-05 12:48 -2.44503 32.93397 3782 ft 7 kts 292°
2026-05-05 12:48 -2.44480 32.93344 3781 ft 9 kts 294°
2026-05-05 12:48 -2.44450 32.93278 3780 ft 12 kts 294°
2026-05-05 12:48 -2.44409 32.93194 3778 ft 15 kts 297°
2026-05-05 12:49 -2.44356 32.93095 3774 ft 18 kts 295°
2026-05-05 12:49 -2.44305 32.92978 3772 ft 19 kts 294°
2026-05-05 12:49 -2.44245 32.92858 3770 ft 20 kts 293°
2026-05-05 12:49 -2.44188 32.92726 3767 ft 20 kts 296°
2026-05-05 12:50 -2.44181 32.92623 3765 ft 15 kts 225°
2026-05-05 12:50 -2.44264 32.92585 3766 ft 13 kts 203°
2026-05-05 12:50 -2.44325 32.92558 3766 ft 15 kts 208°
2026-05-05 12:50 -2.44428 32.92497 3765 ft 3 kts 228°
2026-05-05 12:51 -2.44419 32.92476 3765 ft 5 kts
2026-05-05 12:51 -2.44409 32.92484 3765 ft 2 kts 42°
2026-05-05 12:51 -2.44404 32.92487 3765 ft 0 kts 30°